Hourly Weather Roundup
Issued by NWS

Home | Current Version | Previous Version | Text Only | Print | Product List | Glossary On
Versions: 1 2 3 4 5 6 7 8 9 10 11 12 13 14 15 16 17 18 19 20 21 22 23 24 25 26 27 28 29 30 31 32 33 34 35 36 37 38 39 40 41 42 43 44 45 46 47 48 49 50
000
NZUS43 KILX 271510
HWRCRS

CRS HOURLY WEATHER ROUNDUP
NATIONAL WEATHER SERVICE, LINCOLN IL
1000 AM CDT WED MAY 27 2015


CITY           SKY/WX    TMP DP  RH WIND       PRES   REMARKS
CHAMPAIGN      CLOUDY    72  64  76 SW18G29   30.03S
LAWRENCEVILLE  PTSUNNY   76  64  66 W14G22    30.09R
PEORIA         PTSUNNY   72  61  68 SW9       30.01R
SPRINGFIELD    CLOUDY    72  64  76 SW9       30.03F
$$


CITY           SKY/WX    TMP DP  RH WIND       PRES   REMARKS
BLOOMINGTON    CLOUDY    70  65  84 W13       30.03S
DECATUR        CLOUDY    71  64  78 SW15G25   30.03S
EFFINGHAM      CLOUDY    68  56  65 SW13G18   30.08F
FLORA          DRIZZLE   67  62  83 SW14      30.11R
GALESBURG      PTSUNNY   68  60  75 SW6       30.02R
JACKSONVILLE   CLOUDY    72  65  78 SW13      30.04S
LACON          MOSUNNY   70  59  67 W9        29.99S
LINCOLN        CLOUDY    72  64  78 SW6       30.00S
LITCHFIELD     CLOUDY    69  62  76 SW14      30.05F

CITY           SKY/WX    TMP DP  RH WIND       PRES   REMARKS
MACOMB         PTSUNNY   69  60  74 W12       30.04S
MATTOON        CLOUDY    72  63  73 SW10G23   30.06R
MOLINE         PTSUNNY   70  58  65 NW16G24   29.99R
OLNEY          LGT RAIN  70  63  78 SW7G18    30.11R
PARIS          CLOUDY    75  65  70 SW22G28   30.06R
PONTIAC        CLOUDY    71  62  72 W13       30.01R
QUINCY         PTSUNNY   69  58  67 W12       30.04S
RANTOUL        CLOUDY    74  66  76 SW15      30.02S
ROBINSON       PTSUNNY   76  63  65 W12       30.09R
TAYLORVILLE    CLOUDY    70  64  83 SW12G23   30.04F
TERRE HAUTE    PTSUNNY   76  65  68 SW10      30.05F
$$


CITY           SKY/WX    TMP DP  RH WIND       PRES   REMARKS
BURLINGTON     CLOUDY    67  60  78 W8        30.02R
CHICAGO        PTSUNNY   69  58  67 W20G26    29.94S
DES MOINES     SUNNY     71  57  61 VRB7      30.03R
EVANSVILLE     MOSUNNY   76  67  73 SW8       30.12R
INDIANAPOLIS   MOSUNNY   77  62  59 SW16      30.05F
KANSAS CITY    MOSUNNY   73  58  59 N7        30.08S
MILWAUKEE      PTSUNNY   67  59  75 SW9       29.90F
ST LOUIS       CLOUDY    74  59  59 SW12      30.05F
$$




USA.gov is the U.S. government's official web portal to all federal, state and local government web resources and services.